Location: Bambrugge
(50.9212°N, 3.9299°E)
Time: 00:03:19
(UTC+00:00)

Helios 1A Rocket - Pass Details

Date: 21 August 2024
Orbit: 512 x 533 km, 98.3° (Epoch: 07 September)

Event Time Altitude Azimuth Distance (km) Brightness Sun altitude
Exits shadow 01:54:50 31° 292° (WNW) 956 3.9 -21.3°
Drops below altitude 10° 01:57:34 10° 330° (NNW) 1,806 5.7 -21.0°
Sets 01:59:49 0° 339° (NNW) 2,698 6.8 -20.8°
